Change the Weather History Date:

Monday, August 26, 2013

  Actual Average Record
Temperature  
Mean Temperature 71 °F -  
Max Temperature 78 °F 91 °F 100 °F (1985)
Min Temperature 64 °F 65 °F 56 °F (1992)
Cooling Degree Days 6    
Growing Degree Days 21 (Base 50)    
Moisture  
Dew Point 63 °F    
Average Humidity 80    
Maximum Humidity 90    
Minimum Humidity 62    
Precipitation  
Precipitation 0.12 in - - ()
Sea Level Pressure  
Sea Level Pressure 30.10 in    
Wind  
Wind Speed 1 mph (NNE)    
Max Wind Speed 7 mph    
Max Gust Speed -    
Visibility 9 miles    
Events Rain , Thunderstorm    
Averages and records for this station are not official NWS values.
T = Trace of Precipitation, MM = Missing Value Source: NWS Daily Summary

Daily Weather History Graph

Daily Weather History Graph

Search for Another Location

Airport or City:

Trip Planner

Search our weather history database for the weather conditions in past years. The results will help you decide how hot, cold, wet, or windy it might be!

Date:

Astronomy

Aug. 26, 2013 Rise Set
Actual Time 5:52 AM MST 7:02 PM MST
Civil Twilight 5:25 AM MST 7:29 PM MST
Nautical Twilight 4:53 AM MST 8:00 PM MST
Astronomical Twilight 4:19 AM MST 8:34 PM MST
Moon 10:25 PM MST (8/26) 11:47 AM MST (8/26)
Length of Visible Light 14h 03m
Length of Day
13h 10m
Waning Gibbous, 65% of the Moon is Illuminated
Aug 26
Waning Gibbous
Aug 28
Last Quarter
Sep 5
New
Sep 12
First Quarter
Sep 19
Full

Hourly Weather History & Observations

Time (MST) Temp. Dew Point Humidity Pressure Visibility Wind Dir Wind Speed Gust Speed Precip Events Conditions
12:23 AM 66.2 °F 59.0 °F 78% 30.23 in 10.0 mi Calm Calm - N/A   Overcast
12:46 AM 64.4 °F 60.8 °F 88% 30.23 in 10.0 mi Calm Calm - N/A   Scattered Clouds
12:53 AM 66.0 °F 61.0 °F 84% 30.09 in 10.0 mi Calm Calm - N/A   Partly Cloudy
1:53 AM 66.9 °F 59.0 °F 76% 30.08 in 10.0 mi Calm Calm - N/A   Overcast
2:03 AM 66.2 °F 59.0 °F 78% 30.22 in 10.0 mi Calm Calm - N/A   Overcast
2:53 AM 66.9 °F 59.0 °F 76% 30.08 in 10.0 mi Calm Calm - N/A   Overcast
3:53 AM 66.0 °F 60.1 °F 81% 30.08 in 10.0 mi ESE 3.5 mph - 0.01 in Rain Light Rain
4:49 AM 64.4 °F 60.8 °F 88% 30.22 in 10.0 mi Calm Calm - 0.01 in   Overcast
4:53 AM 64.9 °F 61.0 °F 87% 30.09 in 10.0 mi Calm Calm - 0.01 in   Overcast
5:53 AM 64.9 °F 61.0 °F 87% 30.09 in 10.0 mi Calm Calm - N/A   Overcast
6:53 AM 64.9 °F 61.0 °F 87% 30.09 in 10.0 mi Calm Calm - 0.01 in   Mostly Cloudy
7:53 AM 64.9 °F 61.0 °F 87% 30.10 in 9.0 mi West 3.5 mph - 0.00 in Rain Light Rain
8:53 AM 66.9 °F 61.0 °F 81% 30.10 in 10.0 mi Calm Calm - 0.00 in   Overcast
9:53 AM 68.0 °F 62.1 °F 81% 30.11 in 8.0 mi WNW 3.5 mph - 0.00 in Rain Light Rain
10:53 AM 70.0 °F 63.0 °F 78% 30.09 in 10.0 mi NNE 3.5 mph - 0.00 in Rain Light Rain
11:53 AM 71.1 °F 63.0 °F 75% 30.07 in 10.0 mi Calm Calm - 0.00 in   Mostly Cloudy
12:53 PM 73.9 °F 63.0 °F 68% 30.04 in 10.0 mi NE 3.5 mph - N/A   Partly Cloudy
1:53 PM 77.0 °F 63.0 °F 62% 30.01 in 10.0 mi NE 6.9 mph - N/A   Scattered Clouds
2:53 PM 75.9 °F 62.1 °F 62% 29.99 in 10.0 mi NE 5.8 mph - N/A   Mostly Cloudy
3:31 PM 73.4 °F 62.6 °F 69% 30.15 in - NE 5.8 mph - 0.01 in Rain , Thunderstorm Light Thunderstorms and Rain
3:48 PM 71.6 °F 64.4 °F 78% 30.17 in 2.0 mi Calm Calm - 0.04 in Rain , Thunderstorm Heavy Thunderstorms and Rain
3:53 PM 70.0 °F 63.0 °F 78% 30.01 in 1.8 mi Calm Calm - 0.06 in Rain , Thunderstorm Heavy Thunderstorms and Rain
4:01 PM 69.8 °F 64.4 °F 83% 30.15 in 2.0 mi Calm Calm - 0.03 in Rain , Thunderstorm Heavy Rain
4:05 PM 69.8 °F 64.4 °F 83% 30.15 in 2.5 mi Calm Calm - 0.04 in Rain , Thunderstorm Rain
4:12 PM 69.8 °F 64.4 °F 83% 30.16 in 8.0 mi WNW 3.5 mph - 0.04 in Rain , Thunderstorm Light Rain
4:30 PM 69.8 °F 64.4 °F 83% 30.16 in 10.0 mi Calm Calm - 0.04 in   Overcast
4:53 PM 71.1 °F 64.9 °F 81% 30.00 in 10.0 mi ENE 3.5 mph - 0.04 in   Mostly Cloudy
9:53 PM 69.1 °F 66.0 °F 90% 30.03 in 10.0 mi Calm Calm - N/A   Scattered Clouds
10:53 PM 70.0 °F 66.0 °F 87% 30.04 in 10.0 mi WSW 4.6 mph - N/A   Overcast
11:53 PM 70.0 °F 66.0 °F 87% 30.02 in 10.0 mi Calm Calm - 0.02 in   Mostly Cloudy